NOAA NWS Hourly Roundups by Site

Regional Weather Roundup for Bismarck, ND

To Select Another Site Choose from List

Select Site:  

000
ASUS43 KBIS 252010
RWRBIS

NWR BROADCAST TEXT
NATIONAL WEATHER SERVICE BISMARCK ND
200 PM CST TUE FEB 25 2020

NOTE: "FAIR" INDICATES FEW OR NO CLOUDS BELOW 12,000 FEET WITH NO
SIGNIFICANT WEATHER AND/OR OBSTRUCTIONS TO VISIBILITY.


CITY           SKY/WX    TMP DP  RH WIND       PRES   REMARKS
WILLISTON      FAIR      20  13  74 NW12      30.51F WCI   8
MINOT          CLOUDY    31  20  63 W7        30.46F
MINOT AFB      CLOUDY    30  20  64 NW10      30.46F
BISMARCK       PTSUNNY   29  22  75 W7        30.51F
DICKINSON      PTSUNNY   27  19  72 NW13      30.46F WCI  16
GARRISON         N/A     26  22  84 VRB5      30.47F
HETTINGER ARPT CLOUDY    28  21  75 W15       30.48F WCI  16
JAMESTOWN      CLOUDY    21  16  81 N17       30.47F WCI   7
CARRINGTON     CLOUDY    21  18  86 N14       30.51F WCI   8
HAZEN          FAIR      30  23  74 NW6       30.51F
MANDAN         CLOUDY    27  25  93 VRB7      30.50S WCI  19
OAKES            N/A     21  16  79 N20G26    30.47S WCI   6
RUGBY          CLOUDY    25  19  80 E5        30.48F WCI  19
STANLEY        MOCLDY    27  19  74 NW15      30.48S WCI  15
TIOGA          FAIR      23  18  80 NW16G23   30.50F WCI  10
WATFORD CITY   FAIR      27  19  74 NW13      30.51F WCI  16
$$

CITY           SKY/WX    TMP DP  RH WIND       PRES   REMARKS
GRAND FORKS    PTSUNNY   15   7  70 N18       30.52F WCI  -2
GRAND FORKS AF PTSUNNY   18  10  70 N14       30.52S WCI   4
DEVILS LAKE    MOSUNNY   17  12  80 N10       30.51F WCI   5
FARGO          MOSUNNY   18  10  71 N23G31    30.49R WCI   0
CANDO          CLOUDY    21  19  93 N10       30.53S WCI  10
CAVALIER       FAIR      14   7  73 N16       30.53F WCI  -2
GRAFTON        FAIR      14   9  79 N20       30.55S WCI  -3
GWINNER        PTCLDY    21  18  86 N15G23    30.46S WCI   8
LANGDON        FAIR      19  12  73 N13       30.49S WCI   7
ROLLA          CLOUDY    21  14  73 NE6       30.47F WCI  14
WALHALLA       FAIR      18   9  68 N13       30.54S WCI   4
$$

CITY           SKY/WX    TMP DP  RH WIND       PRES   REMARKS
ABERDEEN       CLOUDY    26  20  77 N20G28    30.47S WCI  12
MOBRIDGE       CLOUDY    27  20  75 N12       30.47F WCI  17
BUFFALO          N/A     28  17  63 NW20      30.46F WCI  15
RAPID CITY     FLURRIES  25  19  78 NW18      30.47S WCI  11
GLASGOW        SUNNY     21   9  59 NW5       30.56F WCI  15
SIDNEY         SUNNY     27  16  63 NW14      30.56S WCI  16
WOLF POINT     SUNNY     21  11  65 W10       30.58F WCI  10
GLENDIVE       SUNNY     23  13  65 NW10      30.55S WCI  12
MILES CITY     SUNNY     28  12  51 NW8       30.55F WCI  20
BAKER          CLOUDY    23  18  81 NW10      30.52F WCI  12
$$

CITY           SKY/WX    TMP DP  RH WIND       PRES   REMARKS
BILLINGS       PTSUNNY   32  13  45 S6        30.51F
GREAT FALLS    SUNNY     26  19  74 S7        30.43F WCI  18
REGINA         PTSUNNY   21  14  73 W13       30.52F WCI   9
ESTEVAN        FLURRIES  18  14  86 NW15G23   30.51S WCI   3
$$



 

View Past Reports for Bismarck, ND.

Products Courtesy of NOAA-NWS
NWS Information Parsing Script by Ken True at Saratoga Weather - Script by SE Lincoln Weather.